TimeWET,TemperatureF,Dew PointF,Humidity,Sea Level PressureIn,VisibilityMPH,Wind Direction,Wind SpeedMPH,Gust SpeedMPH,PrecipitationIn,Events,Conditions,WindDirDegrees,DateUTC
12:00 AM,60,54,76,30.14,6,East,4.6,,,,Clear,80,2013-03-29 00:00:00
12:00 AM,59.0,55.4,88,30.15,-9999.0,East,4.6,-,N/A,,Clear,90,2013-03-29 00:00:00
1:30 AM,59.0,55.4,88,30.15,-9999.0,Calm,Calm,-,N/A,,Clear,0,2013-03-29 01:30:00
2:00 AM,59.0,55.4,88,30.15,-9999.0,Calm,Calm,-,N/A,,Clear,0,2013-03-29 02:00:00
2:30 AM,59.0,55.4,88,30.18,-9999.0,South,5.8,-,N/A,,Clear,170,2013-03-29 02:30:00
3:00 AM,58,54,83,30.17,6,South,3.5,,,,Clear,180,2013-03-29 03:00:00
3:00 AM,57.2,53.6,88,30.18,-9999.0,South,4.6,-,N/A,,Clear,170,2013-03-29 03:00:00
3:30 AM,55.4,51.8,88,30.18,-9999.0,Calm,Calm,-,N/A,,Clear,0,2013-03-29 03:30:00
4:00 AM,53.6,51.8,94,30.18,-9999.0,Calm,Calm,-,N/A,,Clear,0,2013-03-29 04:00:00
4:30 AM,53.6,51.8,94,30.18,-9999.0,West,4.6,-,N/A,,Clear,270,2013-03-29 04:30:00
5:00 AM,55.4,53.6,94,30.18,-9999.0,Calm,Calm,-,N/A,,Clear,0,2013-03-29 05:00:00
5:30 AM,53.6,51.8,94,30.15,-9999.0,Calm,Calm,-,N/A,,Clear,0,2013-03-29 05:30:00
6:00 AM,53,51,91,30.18,6,North,4.6,,,,Clear,0,2013-03-29 06:00:00
6:00 AM,53.6,50.0,88,30.15,-9999.0,NNE,3.5,-,N/A,,Clear,30,2013-03-29 06:00:00
6:30 AM,55.4,51.8,88,30.18,-9999.0,NNW,4.6,-,N/A,,Clear,330,2013-03-29 06:30:00
7:00 AM,55.4,53.6,94,30.15,5.6,Calm,Calm,-,N/A,,Scattered Clouds,0,2013-03-29 07:00:00
7:30 AM,55.4,53.6,94,30.18,6.2,East,5.8,-,N/A,,Scattered Clouds,90,2013-03-29 07:30:00
8:00 AM,57.2,53.6,88,30.18,6.2,ESE,9.2,-,N/A,,Scattered Clouds,110,2013-03-29 08:00:00
8:30 AM,59.0,55.4,88,30.15,6.2,ESE,8.1,-,N/A,,Scattered Clouds,120,2013-03-29 08:30:00
9:00 AM,65,54,60,30.13,6,Calm,Calm,,,,Scattered Clouds,,2013-03-29 09:00:00
9:00 AM,64.4,55.4,73,30.15,6.2,Calm,Calm,-,N/A,,Scattered Clouds,0,2013-03-29 09:00:00
9:30 AM,66.2,53.6,64,30.18,6.2,Calm,Calm,-,N/A,,Scattered Clouds,0,2013-03-29 09:30:00
10:00 AM,66.2,55.4,68,30.18,6.2,NNW,5.8,-,N/A,,Mostly Cloudy,330,2013-03-29 10:00:00
10:30 AM,68.0,53.6,60,30.21,6.2,Variable,2.3,-,N/A,,Mostly Cloudy,0,2013-03-29 10:30:00
11:00 AM,71.6,51.8,50,30.18,6.2,Calm,Calm,-,N/A,,Mostly Cloudy,0,2013-03-29 11:00:00
11:30 AM,71.6,50.0,46,30.21,6.2,Calm,Calm,-,N/A,,Mostly Cloudy,0,2013-03-29 11:30:00
12:00 PM,75,50,31,30.14,6,Calm,Calm,,,,Scattered Clouds,,2013-03-29 12:00:00
12:00 PM,73.4,51.8,47,30.18,6.2,Calm,Calm,-,N/A,,Mostly Cloudy,0,2013-03-29 12:00:00
12:30 PM,75.2,50.0,41,30.18,6.2,Calm,Calm,-,N/A,,Mostly Cloudy,0,2013-03-29 12:30:00
1:00 PM,77.0,46.4,34,30.18,6.2,Calm,Calm,-,N/A,,Mostly Cloudy,0,2013-03-29 13:00:00
1:30 PM,77.0,46.4,34,30.15,6.2,Calm,Calm,-,N/A,,Mostly Cloudy,0,2013-03-29 13:30:00
2:00 PM,78.8,44.6,30,30.15,6.2,Calm,Calm,-,N/A,,Mostly Cloudy,0,2013-03-29 14:00:00
2:30 PM,80.6,41.0,24,30.15,6.2,Calm,Calm,-,N/A,,Mostly Cloudy,0,2013-03-29 14:30:00
3:00 PM,83,37,11,30.06,6,Calm,Calm,,,,Scattered Clouds,,2013-03-29 15:00:00
3:00 PM,82.4,39.2,21,30.12,6.2,Calm,Calm,-,N/A,,Mostly Cloudy,0,2013-03-29 15:00:00
3:30 PM,82.4,35.6,19,30.12,6.2,Calm,Calm,-,N/A,,Mostly Cloudy,0,2013-03-29 15:30:00
4:30 PM,82.4,41.0,23,30.12,6.2,Calm,Calm,-,N/A,,Mostly Cloudy,0,2013-03-29 16:30:00
5:00 PM,82.4,41.0,23,30.12,6.2,Calm,Calm,-,N/A,,Mostly Cloudy,0,2013-03-29 17:00:00
5:30 PM,82.4,39.2,21,30.12,6.2,West,5.8,-,N/A,,Mostly Cloudy,280,2013-03-29 17:30:00
6:00 PM,82,41,14,30.06,6,West,4.6,,,,Scattered Clouds,280,2013-03-29 18:00:00
6:00 PM,82.4,41.0,23,30.12,6.2,WNW,4.6,-,N/A,,Mostly Cloudy,290,2013-03-29 18:00:00
6:30 PM,80.6,41.0,24,30.15,6.2,WNW,4.6,-,N/A,,Scattered Clouds,300,2013-03-29 18:30:00
7:00 PM,77.0,44.6,32,30.15,6.2,West,5.8,-,N/A,,Scattered Clouds,280,2013-03-29 19:00:00
7:30 PM,73.4,46.4,38,30.15,5.6,WNW,5.8,-,N/A,,Scattered Clouds,300,2013-03-29 19:30:00
8:00 PM,73.4,46.4,38,30.15,6.2,West,2.3,-,N/A,,Scattered Clouds,280,2013-03-29 20:00:00
8:30 PM,71.6,46.4,41,30.15,6.2,SW,3.5,-,N/A,,Scattered Clouds,230,2013-03-29 20:30:00
9:00 PM,71,51,38,30.14,6,WNW,8.1,,,,Scattered Clouds,300,2013-03-29 21:00:00
9:00 PM,71.6,48.2,43,30.18,6.2,WNW,6.9,-,N/A,,Scattered Clouds,300,2013-03-29 21:00:00
9:30 PM,69.8,57.2,64,30.21,-9999.0,NNW,4.6,-,N/A,,Clear,340,2013-03-29 21:30:00
10:00 PM,68.0,59.0,73,30.21,-9999.0,Variable,2.3,-,N/A,,Clear,0,2013-03-29 22:00:00
10:30 PM,66.2,59.0,78,30.21,5.6,Calm,Calm,-,N/A,,Unknown,0,2013-03-29 22:30:00
11:00 PM,64.4,57.2,77,30.24,-9999.0,South,2.3,-,N/A,,Clear,190,2013-03-29 23:00:00
11:30 PM,64.4,57.2,77,30.24,-9999.0,SSW,6.9,-,N/A,,Clear,200,2013-03-29 23:30:00